Regional Weather Roundup
Issued by NWS Albany, NY

Home | Current Version | Previous Version | Text Only | Print | Product List | Glossary On
Versions: 1 2 3 4 5 6 7 8 9 10 11 12 13 14 15 16 17 18 19 20 21 22 23 24 25 26 27 28 29 30 31 32 33 34 35 36 37 38 39 40 41 42 43 44 45 46 47 48 49 50
000
ASUS41 KALY 311310
RWRALY

NEW YORK STATE HOURLY WEATHER ROUNDUP
NATIONAL WEATHER SERVICE ALBANY NY
900 AM EDT TUE MAY 31 2016

NOTE: "FAIR" INDICATES FEW OR NO CLOUDS BELOW 12,000 FEET WITH NO
SIGNIFICANT WEATHER AND/OR NO OBSTRUCTIONS TO VISIBILITY.

NYZ032-033-038>043-046>054-057>066-NYZ062>081-082-084-311400-
EAST


CITY           SKY/WX    TMP DP  RH WIND       PRES   REMARKS
ALBANY         MOSUNNY   72  53  51 W7        29.98R
GLENS FALLS    SUNNY     72  52  49 S5        29.95S
POUGHKEEPSIE   CLOUDY    75  61  61 N6        29.97S
NEWBURGH       MOSUNNY   68  66  94 CALM      30.00R
MONTGOMERY     CLOUDY    74  64  71 CALM      29.98S
WHITE PLAINS   MOSUNNY   75  60  59 NE5       29.98R
ISLIP          PTSUNNY   69  66  90 SW6       29.98R FOG
NEW YORK CITY  PTSUNNY   75  65  71 NE8       29.96R
CENTRAL PARK   CLOUDY    74  65  73 VRB3      29.99R
$$

NYZ005>009-017-018-044>046-055-056-311400-
CENTRAL


CITY           SKY/WX    TMP DP  RH WIND       PRES   REMARKS
FULTON         SUNNY     72  56  57 SW5       29.99S
SYRACUSE       MOSUNNY   69  55  60 W5        29.99S
ROME           SUNNY     67  56  67 CALM      30.01S
ELMIRA         SUNNY     66  56  70 W3        30.02S
BINGHAMTON     SUNNY     65  55  70 W5        30.04R
MONTICELLO     SUNNY     70  57  64 CALM      30.04R
$$

NYZ026>034-041>043-087-311400-
NORTH


CITY           SKY/WX    TMP DP  RH WIND       PRES   REMARKS
WATERTOWN      SUNNY     69  51  52 W12       29.97R
FORT DRUM      NOT AVBL
MASSENA        MOSUNNY   69  52  54 SW12G17   29.91S
SARANAC LAKE   SUNNY     64  48  56 W13G23    29.95R
PLATTSBURGH    SUNNY     71  51  49 W10G18    29.89R
$$

NYZ001>004-010>016-019>021-085-311400-
WEST


CITY           SKY/WX    TMP DP  RH WIND       PRES   REMARKS
NIAGARA FALLS  MOSUNNY   71  55  56 S5        30.01R
BUFFALO        MOSUNNY   71  52  50 CALM      30.02R
DUNKIRK        SUNNY     71  56  58 CALM      30.02R
JAMESTOWN      SUNNY     64  55  72 S5        30.05S
WELLSVILLE     SUNNY     66  57  72 NE3       30.08R
ROCHESTER      MOSUNNY   68  59  73 SW7       30.01S
PENN YAN       PTSUNNY   67  57  70 SW6       30.04R
$$

             KEY
       WCI = WIND CHILL INDEX
       VSB = VISIBILITY
       HX  = HEAT INDEX
$$



USA.gov is the U.S. government's official web portal to all federal, state and local government web resources and services.